QPF
0.03 0.04 0.04 0.04 0.03 0.03 0.04 0.06 0.08 0.08 0.06 0.05 0.03 0.01 0.01 0.02 0.01 0.01 0.01 0.01 0.04 0.05 0.05 0.04 0.04 0.04 0.03 0.03 0.03 0.03 0.03 0.04 0.05 0.03 0.03 0.03 0.05 0.06
0.03 0.03 0.03 0.03 0.04 0.04 0.04 0.05 0.07 0.09 0.09 0.07 0.03 0.01 0.01 0.01 0.01 0.03 0.03 0.02 0.01 0.02 0.03 0.03 0.03 0.03 0.03 0.03 0.03 0.03 0.03 0.04 0.04 0.04 0.03 0.04 0.04 0.06
0.02 0.02 0.03 0.05 0.05 0.04 0.04 0.05 0.07 0.09 0.11 0.10 0.05 0.03 0.02 0.01 0.02 0.02 0.03 0.03 0.02 0.01 0.01 0.01 0.01 0.01 0.01 0.01 0.01 0.02 0.03 0.03 0.04 0.04 0.04 0.03 0.03 0.03
0.04 0.05 0.04 0.04 0.04 0.05 0.05 0.06 0.07 0.08 0.10 0.10 0.07 0.04 0.02 0.02 0.02 0.01 0.01 0.02 0.02 0.01 0.01 0.01 0.01 0.00 0.00 0.00 0.01 0.01 0.01 0.02 0.02 0.03 0.03 0.03 0.03 0.03
0.03 0.05 0.04 0.04 0.04 0.05 0.05 0.06 0.07 0.07 0.07 0.08 0.05 0.03 0.02 0.02 0.02 0.02 0.02 0.02 0.01 0.01 0.01 0.01 0.01 0.01 0.01 0.02 0.02 0.02 0.01 0.01 0.01 0.02 0.03 0.03 0.04 0.05
0.02 0.03 0.05 0.05 0.05 0.06 0.05 0.06 0.07 0.07 0.08 0.07 0.04 0.03 0.03 0.02 0.02 0.03 0.03 0.03 0.01 0.00 0.01 0.00 0.00 0.01 0.01 0.01 0.02 0.02 0.02 0.02 0.03 0.03 0.03 0.05 0.06 0.06
0.02 0.02 0.04 0.04 0.04 0.04 0.05 0.06 0.07 0.07 0.08 0.06 0.05 0.03 0.03 0.03 0.02 0.02 0.02 0.02 0.01 0.01 0.00 0.01 0.01 0.01 0.01 0.01 0.01 0.00 0.01 0.01 0.01 0.02 0.02 0.02 0.03 0.03
0.03 0.02 0.03 0.03 0.03 0.04 0.04 0.05 0.05 0.06 0.06 0.05 0.04 0.04 0.04 0.04 0.03 0.03 0.02 0.02 0.01 0.01 0.01 0.01 0.01 0.01 0.01 0.01 0.02 0.01 0.01 0.01 0.01 0.01 0.01 0.01 0.01 0.01
0.03 0.03 0.03 0.02 0.03 0.04 0.04 0.04 0.04 0.05 0.05 0.05 0.04 0.04 0.03 0.04 0.03 0.03 0.02 0.02 0.02 0.01 0.01 0.01 0.01 0.01 0.01 0.01 0.02 0.01 0.01 0.01 0.01 0.01 0.01 0.01 0.01 0.00
0.02 0.02 0.02 0.02 0.02 0.03 0.04 0.05 0.05 0.04 0.04 0.04 0.04 0.04 0.03 0.03 0.03 0.02 0.03 0.03 0.02 0.02 0.02 0.01 0.02 0.02 0.02 0.02 0.02 0.01 0.01 0.01 0.01 0.01 0.00 0.00 0.01 0.01
0.01 0.01 0.01 0.01 0.01 0.02 0.02 0.03 0.04 0.05 0.05 0.05 0.05 0.04 0.04 0.04 0.04 0.03 0.03 0.02 0.02 0.02 0.02 0.02 0.01 0.02 0.02 0.02 0.01 0.01 0.01 0.00 0.00 0.00 0.00 0.01 0.01 0.01
0.01 0.01 0.01 0.01 0.01 0.01 0.02 0.03 0.04 0.05 0.05 0.06 0.05 0.05 0.04 0.04 0.04 0.04 0.04 0.04 0.04 0.03 0.02 0.02 0.02 0.02 0.02 0.02 0.02 0.02 0.02 0.01 0.00 0.00 0.01 0.01 0.01 0.01
0.01 0.01 0.01 0.01 0.01 0.01 0.01 0.02 0.03 0.05 0.05 0.04 0.03 0.03 0.03 0.03 0.04 0.04 0.04 0.03 0.03 0.03 0.02 0.03 0.02 0.02 0.03 0.02 0.01 0.02 0.02 0.02 0.01 0.01 0.01 0.00 0.01 0.01
0.02 0.02 0.02 0.01 0.01 0.01 0.01 0.01 0.03 0.05 0.04 0.04 0.02 0.02 0.02 0.02 0.02 0.03 0.03 0.03 0.03 0.03 0.03 0.03 0.03 0.03 0.03 0.02 0.01 0.01 0.01 0.02 0.02 0.02 0.02 0.01 0.00 0.00
0.02 0.02 0.02 0.01 0.01 0.01 0.01 0.02 0.03 0.03 0.03 0.03 0.03 0.02 0.02 0.02 0.02 0.02 0.03 0.04 0.03 0.03 0.02 0.02 0.02 0.02 0.02 0.02 0.02 0.02 0.02 0.02 0.02 0.02 0.02 0.02 0.02 0.01
0.02 0.03 0.03 0.02 0.02 0.01 0.01 0.02 0.02 0.01 0.02 0.02 0.02 0.02 0.02 0.02 0.02 0.02 0.02 0.02 0.02 0.02 0.01 0.01 0.01 0.02 0.02 0.02 0.02 0.02 0.02 0.02 0.01 0.01 0.01 0.01 0.01 0.01
0.04 0.03 0.02 0.02 0.02 0.01 0.02 0.02 0.01 0.01 0.01 0.03 0.03 0.02 0.02 0.02 0.02 0.01 0.01 0.02 0.02 0.02 0.01 0.01 0.02 0.02 0.02 0.02 0.02 0.02 0.02 0.02 0.01 0.01 0.01 0.01 0.02 0.02
0.05 0.03 0.02 0.01 0.01 0.01 0.02 0.02 0.02 0.01 0.01 0.02 0.02 0.03 0.02 0.02 0.01 0.01 0.01 0.02 0.02 0.01 0.01 0.02 0.02 0.02 0.02 0.02 0.01 0.01 0.01 0.02 0.02 0.02 0.02 0.02 0.02 0.02
0.04 0.04 0.03 0.02 0.01 0.02 0.03 0.06 0.04 0.01 0.01 0.02 0.02 0.02 0.02 0.01 0.01 0.01 0.01 0.01 0.01 0.01 0.01 0.01 0.02 0.02 0.02 0.02 0.01 0.00 0.01 0.02 0.02 0.02 0.02 0.02 0.02 0.03
0.03 0.04 0.04 0.04 0.04 0.04 0.05 0.06 0.03 0.01 0.01 0.03 0.02 0.02 0.02 0.01 0.01 0.01 0.00 0.00 0.01 0.01 0.01 0.01 0.01 0.02 0.02 0.02 0.02 0.01 0.01 0.02 0.02 0.03 0.03 0.03 0.03 0.02
0.03 0.03 0.03 0.05 0.04 0.03 0.02 0.02 0.02 0.03 0.02 0.03 0.03 0.02 0.02 0.02 0.01 0.01 0.00 0.01 0.01 0.01 0.01 0.01 0.01 0.02 0.03 0.04 0.03 0.02 0.02 0.01 0.01 0.02 0.03 0.03 0.03 0.03
0.02 0.03 0.02 0.03 0.03 0.03 0.02 0.03 0.03 0.04 0.03 0.03 0.04 0.04 0.03 0.02 0.02 0.01 0.01 0.01 0.01 0.01 0.01 0.01 0.02 0.03 0.03 0.03 0.02 0.02 0.02 0.02 0.02 0.01 0.02 0.02 0.02 0.02
0.01 0.01 0.01 0.01 0.02 0.02 0.02 0.02 0.03 0.04 0.04 0.03 0.04 0.05 0.04 0.03 0.03 0.02 0.02 0.01 0.01 0.01 0.01 0.02 0.03 0.03 0.03 0.03 0.03 0.03 0.02 0.02 0.02 0.02 0.01 0.01 0.01 0.01
MSLP
1010.39 1010.00 1009.68 1009.42 1009.22 1009.07 1008.95 1008.87 1008.82 1008.83 1008.90 1009.05 1009.30 1009.64 1010.08 1010.59 1011.17 1011.81 1012.48 1013.17 1013.87 1014.56 1015.25 1015.92 1016.58 1017.20 1017.78 1018.32 1018.81 1019.26 1019.66 1020.04 1020.42 1020.79 1021.17 1021.57 1021.96 1022.34
1009.69 1009.32 1009.01 1008.75 1008.54 1008.37 1008.23 1008.13 1008.07 1008.06 1008.12 1008.28 1008.54 1008.90 1009.36 1009.91 1010.53 1011.20 1011.90 1012.62 1013.34 1014.07 1014.79 1015.50 1016.19 1016.85 1017.48 1018.06 1018.59 1019.08 1019.52 1019.93 1020.32 1020.72 1021.12 1021.53 1021.95 1022.34
1008.88 1008.54 1008.26 1008.03 1007.83 1007.66 1007.51 1007.39 1007.31 1007.28 1007.34 1007.50 1007.76 1008.14 1008.62 1009.20 1009.85 1010.55 1011.28 1012.03 1012.78 1013.53 1014.29 1015.03 1015.76 1016.46 1017.13 1017.75 1018.32 1018.84 1019.31 1019.74 1020.16 1020.56 1020.97 1021.39 1021.81 1022.22
1008.01 1007.73 1007.49 1007.30 1007.13 1006.97 1006.83 1006.70 1006.60 1006.57 1006.61 1006.75 1007.01 1007.39 1007.89 1008.47 1009.14 1009.86 1010.62 1011.39 1012.17 1012.95 1013.73 1014.51 1015.27 1016.00 1016.71 1017.37 1017.98 1018.53 1019.02 1019.47 1019.90 1020.30 1020.71 1021.12 1021.53 1021.95
1007.11 1006.89 1006.72 1006.59 1006.47 1006.34 1006.22 1006.09 1005.99 1005.93 1005.95 1006.08 1006.32 1006.68 1007.17 1007.76 1008.43 1009.16 1009.92 1010.71 1011.51 1012.31 1013.11 1013.91 1014.70 1015.47 1016.21 1016.90 1017.54 1018.12 1018.64 1019.10 1019.53 1019.94 1020.33 1020.73 1021.13 1021.53
1006.18 1006.03 1005.93 1005.87 1005.81 1005.74 1005.64 1005.54 1005.44 1005.38 1005.38 1005.47 1005.68 1006.02 1006.48 1007.05 1007.71 1008.43 1009.20 1009.99 1010.79 1011.60 1012.41 1013.22 1014.03 1014.82 1015.59 1016.32 1016.99 1017.60 1018.15 1018.64 1019.08 1019.49 1019.88 1020.27 1020.65 1021.04
1005.21 1005.11 1005.08 1005.09 1005.11 1005.10 1005.06 1004.99 1004.91 1004.84 1004.84 1004.91 1005.09 1005.39 1005.82 1006.35 1006.98 1007.68 1008.43 1009.21 1010.00 1010.80 1011.61 1012.43 1013.24 1014.05 1014.84 1015.60 1016.31 1016.96 1017.55 1018.08 1018.56 1018.99 1019.39 1019.78 1020.16 1020.54
1004.16 1004.10 1004.13 1004.21 1004.30 1004.36 1004.39 1004.37 1004.33 1004.28 1004.27 1004.33 1004.49 1004.77 1005.16 1005.66 1006.26 1006.92 1007.64 1008.39 1009.16 1009.93 1010.72 1011.52 1012.33 1013.14 1013.95 1014.73 1015.49 1016.20 1016.85 1017.44 1017.97 1018.45 1018.89 1019.30 1019.69 1020.07
1003.04 1002.98 1003.05 1003.18 1003.34 1003.48 1003.57 1003.62 1003.63 1003.63 1003.65 1003.72 1003.87 1004.13 1004.50 1004.97 1005.53 1006.17 1006.84 1007.55 1008.28 1009.01 1009.76 1010.53 1011.30 1012.10 1012.91 1013.73 1014.53 1015.30 1016.03 1016.71 1017.32 1017.88 1018.38 1018.83 1019.25 1019.64
1001.90 1001.82 1001.88 1002.04 1002.24 1002.45 1002.61 1002.73 1002.81 1002.86 1002.93 1003.03 1003.21 1003.48 1003.84 1004.30 1004.84 1005.44 1006.08 1006.74 1007.41 1008.09 1008.78 1009.49 1010.22 1010.98 1011.78 1012.61 1013.45 1014.28 1015.09 1015.86 1016.58 1017.23 1017.81 1018.33 1018.79 1019.20
1000.84 1000.70 1000.73 1000.89 1001.11 1001.35 1001.57 1001.76 1001.91 1002.03 1002.16 1002.32 1002.53 1002.83 1003.22 1003.68 1004.22 1004.79 1005.40 1006.01 1006.62 1007.23 1007.85 1008.48 1009.14 1009.85 1010.61 1011.42 1012.28 1013.16 1014.03 1014.89 1015.70 1016.46 1017.12 1017.72 1018.22 1018.65
1000.01 999.79 999.75 999.87 1000.08 1000.33 1000.59 1000.82 1001.03 1001.22 1001.41 1001.62 1001.90 1002.24 1002.66 1003.14 1003.68 1004.26 1004.84 1005.41 1005.97 1006.51 1007.04 1007.58 1008.16 1008.78 1009.47 1010.24 1011.08 1011.97 1012.89 1013.81 1014.70 1015.52 1016.27 1016.92 1017.47 1017.92
999.57 999.23 999.11 999.16 999.32 999.55 999.81 1000.06 1000.30 1000.53 1000.77 1001.04 1001.35 1001.74 1002.19 1002.71 1003.26 1003.84 1004.41 1004.96 1005.47 1005.94 1006.39 1006.84 1007.32 1007.85 1008.46 1009.15 1009.94 1010.80 1011.71 1012.65 1013.57 1014.44 1015.23 1015.92 1016.50 1016.97
999.60 999.16 998.94 998.90 998.99 999.17 999.39 999.62 999.85 1000.09 1000.34 1000.63 1000.97 1001.37 1001.84 1002.38 1002.94 1003.53 1004.09 1004.62 1005.10 1005.53 1005.92 1006.29 1006.68 1007.11 1007.62 1008.22 1008.92 1009.72 1010.58 1011.48 1012.39 1013.26 1014.06 1014.76 1015.34 1015.81
1000.16 999.63 999.32 999.18 999.19 999.29 999.44 999.61 999.79 999.98 1000.19 1000.45 1000.76 1001.14 1001.60 1002.12 1002.69 1003.27 1003.83 1004.36 1004.83 1005.23 1005.59 1005.91 1006.23 1006.58 1006.99 1007.50 1008.10 1008.80 1009.58 1010.41 1011.25 1012.08 1012.84 1013.51 1014.08 1014.53
1001.18 1000.60 1000.22 1000.01 999.92 999.92 999.98 1000.05 1000.13 1000.22 1000.34 1000.50 1000.73 1001.04 1001.43 1001.90 1002.43 1002.98 1003.54 1004.07 1004.54 1004.95 1005.30 1005.61 1005.90 1006.21 1006.56 1006.98 1007.49 1008.09 1008.76 1009.49 1010.25 1010.99 1011.69 1012.31 1012.84 1013.27
1002.58 1001.98 1001.57 1001.29 1001.13 1001.03 1000.97 1000.92 1000.86 1000.81 1000.78 1000.79 1000.87 1001.03 1001.30 1001.66 1002.10 1002.60 1003.13 1003.65 1004.13 1004.57 1004.96 1005.29 1005.60 1005.91 1006.23 1006.61 1007.06 1007.58 1008.16 1008.79 1009.45 1010.10 1010.72 1011.28 1011.76 1012.16
1004.19 1003.63 1003.21 1002.91 1002.69 1002.51 1002.34 1002.15 1001.93 1001.70 1001.47 1001.27 1001.14 1001.10 1001.17 1001.36 1001.67 1002.06 1002.52 1003.02 1003.51 1003.98 1004.42 1004.83 1005.20 1005.55 1005.91 1006.30 1006.73 1007.20 1007.72 1008.28 1008.86 1009.43 1009.98 1010.48 1010.92 1011.30
1005.85 1005.36 1004.98 1004.69 1004.44 1004.20 1003.93 1003.60 1003.22 1002.79 1002.34 1001.91 1001.52 1001.23 1001.06 1001.03 1001.13 1001.38 1001.72 1002.16 1002.64 1003.14 1003.64 1004.12 1004.58 1005.03 1005.46 1005.90 1006.36 1006.84 1007.35 1007.87 1008.40 1008.92 1009.42 1009.88 1010.30 1010.68
1007.45 1007.05 1006.75 1006.49 1006.24 1005.97 1005.62 1005.18 1004.66 1004.04 1003.36 1002.68 1002.02 1001.45 1000.99 1000.70 1000.57 1000.60 1000.80 1001.12 1001.56 1002.06 1002.59 1003.15 1003.71 1004.25 1004.79 1005.32 1005.85 1006.38 1006.91 1007.44 1007.96 1008.46 1008.95 1009.40 1009.81 1010.20
1008.89 1008.60 1008.39 1008.19 1007.97 1007.69 1007.31 1006.79 1006.14 1005.36 1004.50 1003.58 1002.66 1001.80 1001.06 1000.47 1000.07 999.87 999.87 1000.04 1000.38 1000.84 1001.38 1001.97 1002.60 1003.24 1003.88 1004.50 1005.12 1005.72 1006.30 1006.87 1007.41 1007.93 1008.43 1008.89 1009.33 1009.74
1010.11 1009.95 1009.83 1009.70 1009.54 1009.28 1008.89 1008.34 1007.61 1006.72 1005.70 1004.59 1003.45 1002.34 1001.33 1000.47 999.79 999.34 999.11 999.10 999.29 999.65 1000.14 1000.73 1001.39 1002.08 1002.78 1003.48 1004.17 1004.85 1005.49 1006.11 1006.70 1007.25 1007.77 1008.26 1008.73 1009.17
1011.10 1011.04 1011.01 1010.96 1010.86 1010.66 1010.29 1009.74 1009.00 1008.06 1006.95 1005.71 1004.41 1003.11 1001.88 1000.78 999.86 999.16 998.70 998.48 998.50 998.72 999.10 999.63 1000.25 1000.94 1001.66 1002.40 1003.14 1003.85 1004.54 1005.20 1005.82 1006.41 1006.96 1007.47 1007.97 1008.44
Thickness
5718 5716 5716 5717 5716 5715 5713 5711 5705 5701 5701 5703 5703 5704 5702 5700 5697 5696 5695 5692 5690 5689 5688 5687 5685 5684 5683 5682 5681 5679 5678 5676 5675 5674 5673 5672 5671 5670
5713 5712 5712 5714 5713 5712 5711 5710 5708 5703 5699 5702 5700 5701 5698 5698 5694 5693 5691 5688 5686 5685 5683 5682 5681 5680 5678 5677 5676 5674 5673 5672 5671 5670 5669 5668 5667 5667
5710 5709 5708 5708 5708 5708 5707 5706 5704 5702 5697 5698 5698 5696 5693 5692 5692 5690 5690 5687 5685 5681 5679 5677 5676 5674 5673 5672 5670 5669 5668 5667 5666 5665 5664 5664 5663 5662
5707 5705 5705 5705 5702 5702 5701 5701 5700 5698 5695 5691 5691 5692 5690 5689 5687 5686 5687 5685 5682 5678 5675 5673 5671 5669 5667 5666 5665 5663 5662 5661 5660 5659 5659 5658 5657 5656
5703 5701 5701 5700 5698 5698 5696 5696 5696 5695 5692 5689 5688 5688 5687 5685 5683 5683 5682 5679 5679 5675 5672 5669 5667 5665 5663 5661 5660 5658 5657 5656 5654 5654 5653 5652 5651 5650
5699 5698 5697 5696 5694 5693 5692 5691 5691 5689 5687 5686 5685 5684 5682 5681 5679 5678 5676 5675 5674 5674 5670 5667 5663 5661 5658 5657 5655 5654 5652 5650 5649 5648 5647 5646 5645 5645
5695 5694 5693 5690 5688 5688 5689 5688 5687 5685 5683 5682 5681 5680 5678 5675 5674 5675 5672 5671 5670 5669 5667 5665 5662 5659 5657 5653 5651 5648 5646 5645 5643 5642 5641 5641 5640 5639
5690 5689 5689 5687 5685 5682 5681 5680 5679 5679 5679 5677 5677 5674 5671 5671 5670 5669 5668 5666 5663 5665 5663 5661 5660 5657 5654 5652 5647 5644 5641 5639 5638 5637 5636 5635 5634 5633
5686 5685 5686 5685 5681 5680 5678 5675 5674 5672 5671 5672 5671 5669 5668 5667 5665 5663 5661 5660 5658 5659 5656 5654 5654 5652 5650 5646 5642 5639 5636 5635 5633 5631 5630 5629 5628 5627
5682 5680 5679 5677 5676 5674 5674 5672 5671 5669 5668 5667 5665 5664 5664 5662 5660 5658 5656 5655 5654 5654 5652 5649 5648 5646 5646 5642 5638 5635 5632 5630 5627 5626 5624 5623 5621 5621
5677 5675 5674 5671 5666 5665 5667 5666 5665 5664 5662 5660 5658 5656 5654 5653 5652 5653 5652 5651 5650 5650 5648 5645 5643 5641 5640 5638 5634 5630 5628 5625 5623 5620 5618 5617 5615 5614
5672 5670 5665 5663 5659 5658 5661 5660 5659 5658 5658 5656 5653 5651 5650 5649 5647 5647 5647 5647 5646 5644 5643 5640 5639 5636 5633 5633 5632 5628 5624 5621 5618 5616 5614 5612 5610 5609
5669 5667 5663 5656 5653 5652 5652 5653 5651 5651 5652 5651 5650 5648 5647 5645 5644 5642 5641 5640 5640 5639 5638 5635 5633 5631 5628 5626 5627 5625 5622 5620 5616 5613 5610 5607 5605 5604
5663 5662 5657 5650 5648 5646 5646 5644 5643 5643 5647 5647 5645 5643 5642 5641 5639 5637 5635 5634 5632 5632 5630 5628 5627 5624 5622 5621 5620 5620 5618 5616 5614 5611 5608 5604 5602 5600
5656 5651 5647 5644 5642 5642 5639 5638 5638 5640 5641 5640 5639 5638 5637 5635 5633 5631 5629 5627 5626 5626 5624 5622 5621 5620 5618 5616 5615 5614 5612 5610 5609 5607 5605 5603 5601 5598
5647 5644 5640 5638 5638 5636 5636 5636 5636 5636 5635 5634 5633 5632 5631 5629 5627 5626 5624 5623 5621 5620 5618 5616 5614 5613 5612 5611 5610 5608 5607 5605 5603 5602 5600 5599 5598 5596
5640 5640 5639 5638 5637 5636 5636 5635 5633 5631 5629 5628 5627 5625 5624 5622 5621 5620 5618 5617 5616 5615 5614 5612 5610 5608 5606 5605 5604 5603 5601 5600 5599 5597 5594 5594 5594 5593
5631 5635 5634 5633 5633 5632 5631 5629 5627 5626 5624 5623 5621 5620 5618 5617 5615 5614 5613 5612 5611 5610 5609 5607 5605 5602 5600 5601 5597 5597 5597 5595 5594 5592 5591 5590 5590 5589
5626 5630 5629 5628 5627 5627 5626 5624 5622 5621 5619 5617 5616 5615 5613 5612 5610 5609 5607 5606 5606 5605 5603 5601 5599 5596 5594 5594 5594 5590 5590 5590 5589 5587 5586 5585 5584 5583
5622 5624 5623 5623 5622 5621 5620 5619 5617 5615 5613 5611 5610 5609 5607 5606 5604 5603 5601 5599 5599 5598 5597 5595 5593 5591 5589 5589 5589 5588 5584 5585 5583 5581 5580 5580 5578 5574
5618 5618 5618 5617 5616 5615 5613 5612 5611 5609 5606 5605 5603 5602 5601 5600 5598 5596 5595 5591 5590 5591 5590 5590 5587 5583 5584 5583 5583 5584 5582 5578 5576 5574 5573 5573 5572 5571
5612 5612 5611 5610 5609 5608 5607 5606 5604 5602 5600 5598 5597 5595 5594 5593 5591 5590 5589 5588 5587 5586 5585 5585 5582 5580 5579 5578 5579 5579 5579 5575 5570 5567 5565 5564 5565 5565
5605 5605 5604 5603 5602 5601 5600 5599 5597 5596 5595 5593 5591 5589 5588 5587 5586 5585 5584 5583 5582 5581 5580 5579 5578 5576 5576 5575 5574 5574 5573 5571 5569 5566 5564 5559 5556 5554